Time,TemperatureF,DewpointF,PressureIn,WindDirection,WindDirectionDegrees,WindSpeedMPH,WindSpeedGustMPH,Humidity,HourlyPrecipIn,Conditions,Clouds,dailyrainin,SoftwareType,DateUTC
2013-01-14 00:01:00,44.4,44.1,29.93,SSW,194,4.0,5.0,99,0.00,,,0.00,Wunderground v.1.15,2013-01-14 05:01:00,
2013-01-14 00:02:00,44.4,44.1,29.92,SSE,150,7.0,7.0,99,0.00,,,0.00,Wunderground v.1.15,2013-01-14 05:02:00,
2013-01-14 00:04:00,44.4,44.1,29.93,SSW,208,5.0,7.0,99,0.00,,,0.00,Wunderground v.1.15,2013-01-14 05:04:00,
2013-01-14 00:06:00,44.4,44.1,29.93,South,183,0.0,7.0,99,0.00,,,0.00,Wunderground v.1.15,2013-01-14 05:06:00,
2013-01-14 00:12:00,44.3,44.0,29.94,SW,215,2.0,4.0,99,0.00,,,0.00,Wunderground v.1.15,2013-01-14 05:12:00,
2013-01-14 00:18:00,44.3,44.0,29.93,SSE,167,5.0,7.0,99,0.00,,,0.00,Wunderground v.1.15,2013-01-14 05:18:00,
2013-01-14 00:24:00,44.2,43.9,29.94,South,174,7.0,7.0,99,0.00,,,0.00,Wunderground v.1.15,2013-01-14 05:24:00,
2013-01-14 00:30:00,44.2,43.9,29.94,SSE,167,6.0,6.0,99,0.00,,,0.00,Wunderground v.1.15,2013-01-14 05:30:00,
2013-01-14 00:35:00,44.3,44.0,29.93,SSE,167,3.0,6.0,99,0.00,,,0.00,Wunderground v.1.15,2013-01-14 05:35:00,
2013-01-14 00:41:00,44.2,43.9,29.93,South,175,6.0,6.0,99,0.00,,,0.00,Wunderground v.1.15,2013-01-14 05:41:00,
2013-01-14 00:47:00,44.2,43.9,29.93,SSW,193,0.0,6.0,99,0.00,,,0.00,Wunderground v.1.15,2013-01-14 05:47:00,
2013-01-14 00:53:00,44.2,43.9,29.93,SSE,163,2.0,3.0,99,0.00,,,0.00,Wunderground v.1.15,2013-01-14 05:53:00,
2013-01-14 00:59:00,44.1,43.8,29.93,South,171,1.0,4.0,99,0.00,,,0.00,Wunderground v.1.15,2013-01-14 05:59:00,
2013-01-14 01:05:00,44.1,43.8,29.93,South,173,1.0,3.0,99,0.00,,,0.00,Wunderground v.1.15,2013-01-14 06:05:00,
2013-01-14 01:11:00,44.1,43.8,29.93,SSE,161,2.0,3.0,99,0.00,,,0.00,Wunderground v.1.15,2013-01-14 06:11:00,
2013-01-14 01:17:00,44.1,43.8,29.93,SSE,153,2.0,4.0,99,0.00,,,0.00,Wunderground v.1.15,2013-01-14 06:17:00,
2013-01-14 01:22:00,44.1,43.8,29.93,SSE,153,5.0,5.0,99,0.00,,,0.00,Wunderground v.1.15,2013-01-14 06:22:00,
2013-01-14 01:28:00,44.1,43.8,29.92,SE,144,3.0,5.0,99,0.00,,,0.00,Wunderground v.1.15,2013-01-14 06:28:00,
2013-01-14 01:34:00,44.1,43.8,29.93,SSE,162,0.0,4.0,99,0.00,,,0.00,Wunderground v.1.15,2013-01-14 06:34:00,
2013-01-14 01:39:00,44.1,43.8,29.93,South,170,3.0,6.0,99,0.00,,,0.00,Wunderground v.1.15,2013-01-14 06:39:00,
2013-01-14 01:44:00,44.1,43.8,29.93,South,173,3.0,6.0,99,0.00,,,0.00,Wunderground v.1.15,2013-01-14 06:44:00,
2013-01-14 01:49:00,44.1,43.8,29.94,South,171,5.0,6.0,99,0.00,,,0.00,Wunderground v.1.15,2013-01-14 06:49:00,
2013-01-14 01:55:00,44.2,43.9,29.95,SSW,192,3.0,7.0,99,0.00,,,0.00,Wunderground v.1.15,2013-01-14 06:55:00,
2013-01-14 02:00:00,44.2,43.9,29.94,SSE,164,3.0,5.0,99,0.00,,,0.00,Wunderground v.1.15,2013-01-14 07:00:00,
2013-01-14 02:05:00,44.3,44.0,29.93,SE,142,1.0,7.0,99,0.00,,,0.00,Wunderground v.1.15,2013-01-14 07:05:00,
2013-01-14 02:10:00,44.3,44.0,29.93,SE,142,3.0,3.0,99,0.00,,,0.00,Wunderground v.1.15,2013-01-14 07:10:00,
2013-01-14 02:15:00,44.3,44.0,29.93,ESE,123,2.0,4.0,99,0.00,,,0.00,Wunderground v.1.15,2013-01-14 07:15:00,
2013-01-14 02:20:00,44.3,44.0,29.93,SE,141,1.0,4.0,99,0.00,,,0.00,Wunderground v.1.15,2013-01-14 07:20:00,
2013-01-14 02:25:00,44.3,44.0,29.94,SSE,163,3.0,4.0,99,0.00,,,0.00,Wunderground v.1.15,2013-01-14 07:25:00,
2013-01-14 02:30:00,44.4,44.1,29.94,SSE,160,3.0,4.0,99,0.00,,,0.00,Wunderground v.1.15,2013-01-14 07:30:00,
2013-01-14 02:35:00,44.6,44.3,29.94,South,182,4.0,10.0,99,0.00,,,0.00,Wunderground v.1.15,2013-01-14 07:35:00,
2013-01-14 02:40:00,44.6,44.3,29.94,South,177,3.0,5.0,99,0.00,,,0.00,Wunderground v.1.15,2013-01-14 07:40:00,
2013-01-14 02:45:00,44.6,44.3,29.94,SSW,192,5.0,7.0,99,0.00,,,0.00,Wunderground v.1.15,2013-01-14 07:45:00,
2013-01-14 02:50:00,44.6,44.3,29.94,South,173,4.0,6.0,99,0.00,,,0.00,Wunderground v.1.15,2013-01-14 07:50:00,
2013-01-14 02:55:00,44.5,44.2,29.94,South,182,5.0,8.0,99,0.00,,,0.00,Wunderground v.1.15,2013-01-14 07:55:00,
2013-01-14 03:00:00,44.4,44.1,29.94,SSW,203,3.0,5.0,99,0.00,,,0.00,Wunderground v.1.15,2013-01-14 08:00:00,
2013-01-14 03:05:00,44.4,44.1,29.94,South,180,4.0,6.0,99,0.00,,,0.00,Wunderground v.1.15,2013-01-14 08:05:00,
2013-01-14 03:10:00,44.3,44.0,29.94,South,188,6.0,6.0,99,0.00,,,0.00,Wunderground v.1.15,2013-01-14 08:10:00,
2013-01-14 03:15:00,44.4,44.1,29.95,South,184,5.0,6.0,99,0.00,,,0.00,Wunderground v.1.15,2013-01-14 08:15:00,
2013-01-14 03:20:00,44.3,44.0,29.96,South,176,4.0,7.0,99,0.00,,,0.00,Wunderground v.1.15,2013-01-14 08:20:00,
2013-01-14 03:25:00,44.3,44.0,29.95,South,173,4.0,7.0,99,0.00,,,0.00,Wunderground v.1.15,2013-01-14 08:25:00,
2013-01-14 03:31:00,44.4,44.1,29.94,South,175,0.0,4.0,99,0.00,,,0.00,Wunderground v.1.15,2013-01-14 08:31:00,
2013-01-14 03:36:00,44.5,44.2,29.94,South,177,1.0,4.0,99,0.00,,,0.00,Wunderground v.1.15,2013-01-14 08:36:00,
2013-01-14 03:41:00,44.5,44.2,29.93,South,178,0.0,1.0,99,0.00,,,0.00,Wunderground v.1.15,2013-01-14 08:41:00,
2013-01-14 03:46:00,44.4,44.1,29.93,South,172,0.0,1.0,99,0.00,,,0.00,Wunderground v.1.15,2013-01-14 08:46:00,
2013-01-14 03:51:00,44.4,44.1,29.94,South,171,3.0,3.0,99,0.00,,,0.00,Wunderground v.1.15,2013-01-14 08:51:00,
2013-01-14 03:56:00,44.3,44.0,29.94,SSE,152,2.0,6.0,99,0.00,,,0.00,Wunderground v.1.15,2013-01-14 08:56:00,
2013-01-14 04:01:00,44.3,44.0,29.94,SSE,159,0.0,4.0,99,0.00,,,0.00,Wunderground v.1.15,2013-01-14 09:01:00,
2013-01-14 04:06:00,44.3,44.0,29.93,SSE,152,0.0,5.0,99,0.00,,,0.00,Wunderground v.1.15,2013-01-14 09:06:00,
2013-01-14 04:11:00,44.3,44.0,29.92,SE,138,2.0,2.0,99,0.00,,,0.00,Wunderground v.1.15,2013-01-14 09:11:00,
2013-01-14 04:16:00,44.3,44.0,29.92,SSE,150,2.0,5.0,99,0.00,,,0.01,Wunderground v.1.15,2013-01-14 09:16:00,
2013-01-14 04:21:00,44.3,44.0,29.92,SE,136,5.0,5.0,99,0.00,,,0.01,Wunderground v.1.15,2013-01-14 09:21:00,
2013-01-14 04:26:00,44.4,44.1,29.92,SE,146,2.0,5.0,99,0.00,,,0.01,Wunderground v.1.15,2013-01-14 09:26:00,
2013-01-14 04:31:00,44.4,44.1,29.91,SE,142,4.0,7.0,99,0.00,,,0.01,Wunderground v.1.15,2013-01-14 09:31:00,
2013-01-14 04:36:00,44.5,44.2,29.91,SE,132,2.0,8.0,99,0.00,,,0.01,Wunderground v.1.15,2013-01-14 09:36:00,
2013-01-14 04:41:00,44.5,44.2,29.91,SE,139,5.0,7.0,99,0.00,,,0.02,Wunderground v.1.15,2013-01-14 09:41:00,
2013-01-14 04:46:00,44.6,44.3,29.90,SE,139,5.0,7.0,99,0.00,,,0.02,Wunderground v.1.15,2013-01-14 09:46:00,
2013-01-14 04:51:00,44.6,44.3,29.88,SE,125,5.0,9.0,99,0.00,,,0.02,Wunderground v.1.15,2013-01-14 09:51:00,
2013-01-14 04:56:00,44.6,44.3,29.89,SE,128,3.0,9.0,99,0.00,,,0.02,Wunderground v.1.15,2013-01-14 09:56:00,
2013-01-14 05:01:00,44.7,44.4,29.88,ESE,105,7.0,12.0,99,0.00,,,0.03,Wunderground v.1.15,2013-01-14 10:01:00,
2013-01-14 05:06:00,44.9,44.6,29.84,ESE,115,11.0,18.0,99,0.00,,,0.03,Wunderground v.1.15,2013-01-14 10:06:00,
2013-01-14 05:11:00,45.0,44.7,29.81,SE,124,18.0,20.0,99,0.06,,,0.04,Wunderground v.1.15,2013-01-14 10:11:00,
2013-01-14 05:16:00,45.6,45.3,29.79,SE,134,20.0,31.0,99,0.06,,,0.04,Wunderground v.1.15,2013-01-14 10:16:00,
2013-01-14 05:21:00,46.3,46.0,29.77,SE,128,14.0,20.0,99,0.04,,,0.04,Wunderground v.1.15,2013-01-14 10:21:00,
2013-01-14 05:26:00,46.7,46.4,29.85,West,261,19.0,22.0,99,0.00,,,0.04,Wunderground v.1.15,2013-01-14 10:26:00,
2013-01-14 05:31:00,46.1,45.8,29.86,WSW,246,12.0,18.0,99,0.00,,,0.04,Wunderground v.1.15,2013-01-14 10:31:00,
2013-01-14 05:36:00,45.9,45.6,29.87,West,270,4.0,18.0,99,0.00,,,0.04,Wunderground v.1.15,2013-01-14 10:36:00,
2013-01-14 05:41:00,45.6,45.3,29.86,WSW,251,6.0,11.0,99,0.00,,,0.04,Wunderground v.1.15,2013-01-14 10:41:00,
2013-01-14 05:46:00,45.4,45.1,29.85,WNW,286,5.0,11.0,99,0.00,,,0.04,Wunderground v.1.15,2013-01-14 10:46:00,
2013-01-14 05:51:00,45.1,44.8,29.88,West,269,7.0,8.0,99,0.00,,,0.04,Wunderground v.1.15,2013-01-14 10:51:00,
2013-01-14 05:56:00,45.0,44.7,29.89,WSW,257,8.0,12.0,99,0.00,,,0.04,Wunderground v.1.15,2013-01-14 10:56:00,
2013-01-14 06:01:00,45.0,44.7,29.89,SW,214,5.0,7.0,99,0.00,,,0.04,Wunderground v.1.15,2013-01-14 11:01:00,
2013-01-14 06:06:00,45.2,44.9,29.90,WSW,247,4.0,10.0,99,0.00,,,0.04,Wunderground v.1.15,2013-01-14 11:06:00,
2013-01-14 06:11:00,45.4,45.1,29.91,SSW,205,7.0,8.0,99,0.00,,,0.04,Wunderground v.1.15,2013-01-14 11:11:00,
2013-01-14 06:16:00,45.7,45.4,29.90,South,171,4.0,9.0,99,0.00,,,0.04,Wunderground v.1.15,2013-01-14 11:16:00,
2013-01-14 06:21:00,45.9,45.6,29.89,SE,135,6.0,8.0,99,0.00,,,0.04,Wunderground v.1.15,2013-01-14 11:21:00,
2013-01-14 06:26:00,45.9,45.6,29.91,South,188,6.0,10.0,99,0.00,,,0.04,Wunderground v.1.15,2013-01-14 11:26:00,
2013-01-14 06:32:00,45.9,45.6,29.92,SSW,196,4.0,7.0,99,0.00,,,0.04,Wunderground v.1.15,2013-01-14 11:32:00,
2013-01-14 06:37:00,45.9,45.6,29.91,SSW,194,5.0,7.0,99,0.00,,,0.04,Wunderground v.1.15,2013-01-14 11:37:00,
2013-01-14 06:42:00,45.9,45.6,29.91,South,188,2.0,6.0,99,0.00,,,0.04,Wunderground v.1.15,2013-01-14 11:42:00,
2013-01-14 06:47:00,45.8,45.5,29.91,SE,142,7.0,9.0,99,0.00,,,0.04,Wunderground v.1.15,2013-01-14 11:47:00,
2013-01-14 06:52:00,45.7,45.4,29.91,SE,135,3.0,5.0,99,0.00,,,0.04,Wunderground v.1.15,2013-01-14 11:52:00,
2013-01-14 06:57:00,45.6,45.3,29.91,ESE,119,3.0,7.0,99,0.00,,,0.04,Wunderground v.1.15,2013-01-14 11:57:00,
2013-01-14 07:02:00,45.7,45.4,29.91,SSE,156,7.0,8.0,99,0.00,,,0.04,Wunderground v.1.15,2013-01-14 12:02:00,
2013-01-14 07:07:00,45.7,45.4,29.91,ESE,122,4.0,8.0,99,0.00,,,0.04,Wunderground v.1.15,2013-01-14 12:07:00,
2013-01-14 07:12:00,45.6,45.3,29.92,SE,130,2.0,4.0,99,0.00,,,0.04,Wunderground v.1.15,2013-01-14 12:12:00,
2013-01-14 07:17:00,45.6,45.3,29.91,SE,132,5.0,6.0,99,0.00,,,0.04,Wunderground v.1.15,2013-01-14 12:17:00,
2013-01-14 07:22:00,45.8,45.5,29.92,SSE,164,7.0,8.0,99,0.00,,,0.04,Wunderground v.1.15,2013-01-14 12:22:00,
2013-01-14 07:27:00,45.9,45.6,29.92,South,189,7.0,9.0,99,0.00,,,0.04,Wunderground v.1.15,2013-01-14 12:27:00,
2013-01-14 07:32:00,46.0,45.7,29.92,SSE,162,5.0,8.0,99,0.00,,,0.04,Wunderground v.1.15,2013-01-14 12:32:00,
2013-01-14 07:37:00,46.1,45.8,29.93,SSE,160,8.0,11.0,99,0.00,,,0.04,Wunderground v.1.15,2013-01-14 12:37:00,
2013-01-14 07:42:00,46.1,45.8,29.93,South,175,0.0,6.0,99,0.00,,,0.04,Wunderground v.1.15,2013-01-14 12:42:00,
2013-01-14 07:47:00,46.1,45.8,29.94,SSE,161,4.0,6.0,99,0.00,,,0.04,Wunderground v.1.15,2013-01-14 12:47:00,
2013-01-14 07:52:00,46.1,45.8,29.94,SSE,167,5.0,7.0,99,0.00,,,0.04,Wunderground v.1.15,2013-01-14 12:52:00,
2013-01-14 07:57:00,46.1,45.8,29.94,South,172,2.0,8.0,99,0.00,,,0.04,Wunderground v.1.15,2013-01-14 12:57:00,
2013-01-14 08:02:00,46.1,45.8,29.94,SSE,168,4.0,6.0,99,0.00,,,0.04,Wunderground v.1.15,2013-01-14 13:02:00,
2013-01-14 08:07:00,46.0,45.7,29.95,SSW,210,7.0,9.0,99,0.00,,,0.04,Wunderground v.1.15,2013-01-14 13:07:00,
2013-01-14 08:12:00,45.9,45.6,29.95,SSW,201,7.0,9.0,99,0.00,,,0.04,Wunderground v.1.15,2013-01-14 13:12:00,
2013-01-14 08:17:00,45.8,45.5,29.96,SSW,194,4.0,9.0,99,0.00,,,0.04,Wunderground v.1.15,2013-01-14 13:17:00,
2013-01-14 08:22:00,45.8,45.5,29.96,South,180,2.0,6.0,99,0.00,,,0.04,Wunderground v.1.15,2013-01-14 13:22:00,
2013-01-14 08:27:00,45.8,45.5,29.98,South,171,0.0,8.0,99,0.00,,,0.04,Wunderground v.1.15,2013-01-14 13:27:00,
2013-01-14 08:32:00,45.8,45.5,29.98,SW,219,0.0,3.0,99,0.00,,,0.04,Wunderground v.1.15,2013-01-14 13:32:00,
2013-01-14 08:37:00,45.8,45.5,29.98,West,269,0.0,3.0,99,0.00,,,0.04,Wunderground v.1.15,2013-01-14 13:37:00,
2013-01-14 08:42:00,45.9,45.6,29.98,West,269,0.0,0.0,99,0.00,,,0.04,Wunderground v.1.15,2013-01-14 13:42:00,
2013-01-14 08:48:00,46.0,45.7,29.98,South,184,4.0,4.0,99,0.00,,,0.04,Wunderground v.1.15,2013-01-14 13:48:00,
2013-01-14 08:53:00,46.1,45.8,29.98,South,180,0.0,4.0,99,0.00,,,0.04,Wunderground v.1.15,2013-01-14 13:53:00,
2013-01-14 08:58:00,46.0,45.7,29.98,South,177,0.0,5.0,99,0.00,,,0.04,Wunderground v.1.15,2013-01-14 13:58:00,
2013-01-14 09:03:00,46.1,45.8,29.99,South,177,0.0,2.0,99,0.00,,,0.04,Wunderground v.1.15,2013-01-14 14:03:00,
2013-01-14 09:07:00,46.3,46.0,30.00,NW,306,0.0,2.0,99,0.00,,,0.04,Wunderground v.1.15,2013-01-14 14:07:00,
2013-01-14 09:13:00,46.3,46.0,30.00,NNW,337,3.0,3.0,99,0.00,,,0.04,Wunderground v.1.15,2013-01-14 14:13:00,
2013-01-14 09:18:00,46.4,46.1,30.01,NNW,337,0.0,3.0,99,0.00,,,0.04,Wunderground v.1.15,2013-01-14 14:18:00,
2013-01-14 09:23:00,46.4,46.1,30.01,NNW,337,0.0,1.0,99,0.00,,,0.04,Wunderground v.1.15,2013-01-14 14:23:00,
2013-01-14 09:28:00,46.4,46.1,30.01,NNW,328,2.0,4.0,99,0.00,,,0.04,Wunderground v.1.15,2013-01-14 14:28:00,
2013-01-14 09:33:00,46.5,46.2,30.02,NNW,328,0.0,1.0,99,0.00,,,0.04,Wunderground v.1.15,2013-01-14 14:33:00,
2013-01-14 09:38:00,46.5,46.2,30.02,NNW,341,0.0,1.0,99,0.00,,,0.04,Wunderground v.1.15,2013-01-14 14:38:00,
2013-01-14 09:43:00,46.6,46.3,30.01,North,5,0.0,3.0,99,0.00,,,0.04,Wunderground v.1.15,2013-01-14 14:43:00,
2013-01-14 09:48:00,46.7,46.4,30.02,NW,324,0.0,3.0,99,0.00,,,0.04,Wunderground v.1.15,2013-01-14 14:48:00,
2013-01-14 09:53:00,46.8,46.5,30.01,NE,42,4.0,4.0,99,0.00,,,0.04,Wunderground v.1.15,2013-01-14 14:53:00,
2013-01-14 09:58:00,46.9,46.6,30.01,ENE,61,0.0,4.0,99,0.00,,,0.04,Wunderground v.1.15,2013-01-14 14:58:00,
2013-01-14 10:03:00,47.0,46.7,30.00,East,82,0.0,6.0,99,0.00,,,0.04,Wunderground v.1.15,2013-01-14 15:03:00,
2013-01-14 10:08:00,47.3,47.0,29.99,East,85,5.0,9.0,99,0.00,,,0.04,Wunderground v.1.15,2013-01-14 15:08:00,
2013-01-14 10:13:00,47.6,47.3,30.00,East,88,0.0,6.0,99,0.00,,,0.04,Wunderground v.1.15,2013-01-14 15:13:00,
2013-01-14 10:18:00,47.6,47.3,30.00,ESE,104,0.0,6.0,99,0.00,,,0.04,Wunderground v.1.15,2013-01-14 15:18:00,
2013-01-14 10:23:00,47.7,47.4,30.00,East,92,0.0,2.0,99,0.00,,,0.04,Wunderground v.1.15,2013-01-14 15:23:00,
2013-01-14 10:28:00,47.9,47.6,30.00,ENE,78,0.0,2.0,99,0.00,,,0.04,Wunderground v.1.15,2013-01-14 15:28:00,
2013-01-14 10:33:00,48.0,47.7,30.01,ENE,78,0.0,0.0,99,0.00,,,0.04,Wunderground v.1.15,2013-01-14 15:33:00,
2013-01-14 10:38:00,48.4,48.1,30.02,North,5,0.0,1.0,99,0.00,,,0.04,Wunderground v.1.15,2013-01-14 15:38:00,
2013-01-14 10:43:00,48.7,48.4,30.02,North,5,0.0,6.0,99,0.00,,,0.04,Wunderground v.1.15,2013-01-14 15:43:00,
2013-01-14 10:48:00,48.6,48.3,30.02,NW,325,0.0,6.0,99,0.00,,,0.04,Wunderground v.1.15,2013-01-14 15:48:00,
2013-01-14 10:54:00,48.6,48.3,30.02,NNW,339,0.0,4.0,99,0.00,,,0.04,Wunderground v.1.15,2013-01-14 15:54:00,
2013-01-14 10:59:00,48.6,48.3,30.02,NW,307,0.0,4.0,99,0.00,,,0.04,Wunderground v.1.15,2013-01-14 15:59:00,
2013-01-14 11:04:00,48.6,48.3,30.03,NW,307,0.0,1.0,99,0.00,,,0.04,Wunderground v.1.15,2013-01-14 16:04:00,
2013-01-14 11:09:00,48.9,48.6,30.02,NW,321,0.0,1.0,99,0.00,,,0.04,Wunderground v.1.15,2013-01-14 16:09:00,
2013-01-14 11:14:00,49.4,49.1,30.02,North,350,4.0,10.0,99,0.00,,,0.04,Wunderground v.1.15,2013-01-14 16:14:00,
2013-01-14 11:19:00,49.4,49.1,30.02,NW,324,5.0,10.0,99,0.00,,,0.04,Wunderground v.1.15,2013-01-14 16:19:00,
2013-01-14 11:24:00,48.9,48.6,30.02,North,10,9.0,11.0,99,0.00,,,0.04,Wunderground v.1.15,2013-01-14 16:24:00,
2013-01-14 11:29:00,48.6,48.3,30.03,NNW,348,9.0,11.0,99,0.00,,,0.04,Wunderground v.1.15,2013-01-14 16:29:00,
2013-01-14 11:34:00,48.5,48.2,30.03,NNW,332,7.0,9.0,99,0.00,,,0.04,Wunderground v.1.15,2013-01-14 16:34:00,
2013-01-14 11:39:00,48.2,47.9,30.03,NNE,31,3.0,12.0,99,0.00,,,0.04,Wunderground v.1.15,2013-01-14 16:39:00,
2013-01-14 11:44:00,48.0,47.7,30.03,NNE,20,13.0,14.0,99,0.00,,,0.04,Wunderground v.1.15,2013-01-14 16:44:00,
2013-01-14 11:49:00,48.3,48.0,30.03,North,350,5.0,14.0,99,0.00,,,0.04,Wunderground v.1.15,2013-01-14 16:49:00,
2013-01-14 11:54:00,48.8,48.5,30.03,WNW,298,7.0,10.0,99,0.00,,,0.04,Wunderground v.1.15,2013-01-14 16:54:00,
2013-01-14 11:59:00,48.9,48.6,30.04,West,267,12.0,15.0,99,0.00,,,0.04,Wunderground v.1.15,2013-01-14 16:59:00,
2013-01-14 12:04:00,49.0,48.7,30.04,NNW,333,4.0,13.0,99,0.00,,,0.00,Wunderground v.1.15,2013-01-14 17:04:00,
2013-01-14 12:09:00,48.3,48.0,30.04,NNE,20,11.0,16.0,99,0.00,,,0.00,Wunderground v.1.15,2013-01-14 17:09:00,
2013-01-14 12:14:00,47.5,47.0,30.04,NW,319,3.0,12.0,98,0.00,,,0.00,Wunderground v.1.15,2013-01-14 17:14:00,
2013-01-14 12:19:00,47.1,46.3,30.04,NNW,337,5.0,12.0,97,0.00,,,0.00,Wunderground v.1.15,2013-01-14 17:19:00,
2013-01-14 12:24:00,46.9,45.8,30.04,NNW,331,11.0,13.0,96,0.00,,,0.00,Wunderground v.1.15,2013-01-14 17:24:00,
2013-01-14 12:29:00,46.7,45.3,30.04,North,360,8.0,14.0,95,0.00,,,0.00,Wunderground v.1.15,2013-01-14 17:29:00,
2013-01-14 12:34:00,47.0,45.6,30.04,WNW,283,5.0,15.0,95,0.00,,,0.00,Wunderground v.1.15,2013-01-14 17:34:00,
2013-01-14 12:39:00,47.5,46.1,30.04,NW,318,9.0,15.0,95,0.00,,,0.00,Wunderground v.1.15,2013-01-14 17:39:00,
2013-01-14 12:44:00,48.0,46.1,30.04,NW,319,7.0,12.0,93,0.00,,,0.00,Wunderground v.1.15,2013-01-14 17:44:00,
2013-01-14 12:49:00,47.8,45.3,30.04,NW,310,3.0,15.0,91,0.00,,,0.00,Wunderground v.1.15,2013-01-14 17:49:00,
2013-01-14 12:54:00,47.7,45.2,30.05,NW,321,9.0,10.0,91,0.00,,,0.00,Wunderground v.1.15,2013-01-14 17:54:00,
2013-01-14 12:59:00,47.9,44.5,30.05,NNE,23,9.0,13.0,88,0.00,,,0.00,Wunderground v.1.15,2013-01-14 17:59:00,
2013-01-14 13:04:00,48.0,43.7,30.04,WNW,302,9.0,14.0,85,0.00,,,0.00,Wunderground v.1.15,2013-01-14 18:04:00,
2013-01-14 13:09:00,48.3,43.7,30.04,NNW,327,7.0,14.0,84,0.00,,,0.00,Wunderground v.1.15,2013-01-14 18:09:00,
2013-01-14 13:14:00,48.6,43.4,30.05,NNW,340,7.0,12.0,82,0.00,,,0.00,Wunderground v.1.15,2013-01-14 18:14:00,
2013-01-14 13:19:00,48.7,42.8,30.05,NNW,333,10.0,15.0,80,0.00,,,0.00,Wunderground v.1.15,2013-01-14 18:19:00,
2013-01-14 13:24:00,48.8,42.6,30.05,NW,322,7.0,13.0,79,0.00,,,0.00,Wunderground v.1.15,2013-01-14 18:24:00,
2013-01-14 13:29:00,48.9,42.0,30.06,NNW,340,6.0,13.0,77,0.00,,,0.00,Wunderground v.1.15,2013-01-14 18:29:00,
2013-01-14 13:34:00,48.7,41.5,30.05,NNE,24,0.0,11.0,76,0.00,,,0.00,Wunderground v.1.15,2013-01-14 18:34:00,
2013-01-14 13:39:00,48.3,41.1,30.06,NNW,345,10.0,11.0,76,0.00,,,0.00,Wunderground v.1.15,2013-01-14 18:39:00,
2013-01-14 13:44:00,48.2,40.6,30.06,NW,319,16.0,16.0,75,0.00,,,0.00,Wunderground v.1.15,2013-01-14 18:44:00,
2013-01-14 13:49:00,48.4,40.8,30.07,NNW,338,6.0,16.0,75,0.00,,,0.00,Wunderground v.1.15,2013-01-14 18:49:00,
2013-01-14 13:54:00,48.7,40.8,30.07,NNW,338,4.0,10.0,74,0.00,,,0.00,Wunderground v.1.15,2013-01-14 18:54:00,
2013-01-14 13:59:00,48.8,40.2,30.08,NNE,13,4.0,13.0,72,0.00,,,0.00,Wunderground v.1.15,2013-01-14 18:59:00,
2013-01-14 14:04:00,48.7,40.1,30.06,NNE,13,11.0,16.0,72,0.00,,,0.00,Wunderground v.1.15,2013-01-14 19:04:00,
2013-01-14 14:09:00,48.4,39.4,30.07,NNW,327,6.0,16.0,71,0.00,,,0.00,Wunderground v.1.15,2013-01-14 19:09:00,
2013-01-14 14:14:00,48.1,39.1,30.07,NNW,342,5.0,13.0,71,0.00,,,0.00,Wunderground v.1.15,2013-01-14 19:14:00,
2013-01-14 14:19:00,47.8,39.2,30.06,North,5,7.0,13.0,72,0.00,,,0.00,Wunderground v.1.15,2013-01-14 19:19:00,
2013-01-14 14:24:00,47.7,39.1,30.08,NW,309,5.0,13.0,72,0.00,,,0.00,Wunderground v.1.15,2013-01-14 19:24:00,
2013-01-14 14:29:00,47.3,38.4,30.08,NNE,24,9.0,13.0,71,0.00,,,0.00,Wunderground v.1.15,2013-01-14 19:29:00,
2013-01-14 14:35:00,46.8,38.2,30.08,NNE,13,3.0,7.0,72,0.00,,,0.00,Wunderground v.1.15,2013-01-14 19:35:00,
2013-01-14 14:40:00,46.4,38.2,30.08,NNE,13,11.0,14.0,73,0.00,,,0.00,Wunderground v.1.15,2013-01-14 19:40:00,
2013-01-14 14:45:00,46.0,37.8,30.10,NNW,337,10.0,14.0,73,0.00,,,0.00,Wunderground v.1.15,2013-01-14 19:45:00,
2013-01-14 14:50:00,45.8,37.6,30.10,NW,308,3.0,14.0,73,0.00,,,0.00,Wunderground v.1.15,2013-01-14 19:50:00,
2013-01-14 14:55:00,45.5,37.3,30.10,NNE,29,7.0,16.0,73,0.00,,,0.00,Wunderground v.1.15,2013-01-14 19:55:00,
2013-01-14 15:00:00,45.4,37.2,30.09,North,355,4.0,16.0,73,0.00,,,0.00,Wunderground v.1.15,2013-01-14 20:00:00,
2013-01-14 15:05:00,45.3,36.8,30.09,NE,47,5.0,12.0,72,0.00,,,0.00,Wunderground v.1.15,2013-01-14 20:05:00,
2013-01-14 15:10:00,45.2,36.7,30.11,North,355,7.0,7.0,72,0.00,,,0.00,Wunderground v.1.15,2013-01-14 20:10:00,
2013-01-14 15:15:00,45.0,36.2,30.10,North,10,5.0,16.0,71,0.00,,,0.00,Wunderground v.1.15,2013-01-14 20:15:00,
2013-01-14 15:20:00,45.0,35.8,30.10,North,11,4.0,7.0,70,0.00,,,0.00,Wunderground v.1.15,2013-01-14 20:20:00,
2013-01-14 15:25:00,44.9,35.7,30.10,NNE,29,4.0,11.0,70,0.00,,,0.00,Wunderground v.1.15,2013-01-14 20:25:00,
2013-01-14 15:30:00,44.6,35.1,30.11,NNE,20,1.0,6.0,69,0.00,,,0.00,Wunderground v.1.15,2013-01-14 20:30:00,
2013-01-14 15:35:00,44.3,34.4,30.10,North,5,3.0,14.0,68,0.00,,,0.00,Wunderground v.1.15,2013-01-14 20:35:00,
2013-01-14 15:40:00,44.0,34.5,30.10,NNE,14,8.0,8.0,69,0.00,,,0.00,Wunderground v.1.15,2013-01-14 20:40:00,
2013-01-14 15:45:00,44.0,34.5,30.10,NNE,26,1.0,10.0,69,0.00,,,0.00,Wunderground v.1.15,2013-01-14 20:45:00,
2013-01-14 15:50:00,43.8,33.9,30.10,North,360,7.0,7.0,68,0.00,,,0.00,Wunderground v.1.15,2013-01-14 20:50:00,
2013-01-14 15:55:00,43.7,33.8,30.11,ENE,67,5.0,12.0,68,0.00,,,0.00,Wunderground v.1.15,2013-01-14 20:55:00,
2013-01-14 16:00:00,43.5,33.6,30.11,NNW,339,5.0,7.0,68,0.00,,,0.00,Wunderground v.1.15,2013-01-14 21:00:00,
2013-01-14 16:05:00,43.3,33.4,30.11,North,360,9.0,10.0,68,0.00,,,0.00,Wunderground v.1.15,2013-01-14 21:05:00,
2013-01-14 16:10:00,43.1,32.9,30.12,NNE,30,5.0,5.0,67,0.00,,,0.00,Wunderground v.1.15,2013-01-14 21:10:00,
2013-01-14 16:15:00,42.8,32.6,30.12,NNW,335,7.0,8.0,67,0.00,,,0.00,Wunderground v.1.15,2013-01-14 21:15:00,
2013-01-14 16:20:00,42.6,32.4,30.12,North,360,8.0,8.0,67,0.00,,,0.00,Wunderground v.1.15,2013-01-14 21:20:00,
2013-01-14 16:25:00,42.4,32.6,30.12,NNE,28,9.0,9.0,68,0.00,,,0.00,Wunderground v.1.15,2013-01-14 21:25:00,
2013-01-14 16:30:00,42.1,32.3,30.12,NNW,348,0.0,5.0,68,0.00,,,0.00,Wunderground v.1.15,2013-01-14 21:30:00,
2013-01-14 16:35:00,41.8,32.0,30.12,NNE,22,9.0,12.0,68,0.00,,,0.00,Wunderground v.1.15,2013-01-14 21:35:00,
2013-01-14 16:40:00,41.5,31.7,30.12,NW,324,5.0,5.0,68,0.00,,,0.00,Wunderground v.1.15,2013-01-14 21:40:00,
2013-01-14 16:45:00,41.3,31.5,30.11,NNW,344,7.0,11.0,68,0.00,,,0.00,Wunderground v.1.15,2013-01-14 21:45:00,
2013-01-14 16:50:00,41.0,31.2,30.12,NNE,22,6.0,10.0,68,0.00,,,0.00,Wunderground v.1.15,2013-01-14 21:50:00,
2013-01-14 16:55:00,40.7,31.0,30.11,North,10,5.0,12.0,68,0.00,,,0.00,Wunderground v.1.15,2013-01-14 21:55:00,
2013-01-14 17:00:00,40.4,30.7,30.11,NE,42,7.0,11.0,68,0.00,,,0.00,Wunderground v.1.15,2013-01-14 22:00:00,
2013-01-14 17:05:00,40.1,30.4,30.11,NNE,14,5.0,14.0,68,0.00,,,0.00,Wunderground v.1.15,2013-01-14 22:05:00,
2013-01-14 17:10:00,39.8,30.1,30.12,NNE,18,3.0,6.0,68,0.00,,,0.00,Wunderground v.1.15,2013-01-14 22:10:00,
2013-01-14 17:15:00,39.6,30.3,30.11,ENE,61,8.0,9.0,69,0.00,,,0.00,Wunderground v.1.15,2013-01-14 22:15:00,
2013-01-14 17:20:00,39.3,30.0,30.12,NNE,17,0.0,5.0,69,0.00,,,0.00,Wunderground v.1.15,2013-01-14 22:20:00,
2013-01-14 17:25:00,39.1,29.8,30.11,North,5,3.0,13.0,69,0.00,,,0.00,Wunderground v.1.15,2013-01-14 22:25:00,
2013-01-14 17:30:00,38.9,29.6,30.12,North,355,3.0,6.0,69,0.00,,,0.00,Wunderground v.1.15,2013-01-14 22:30:00,
2013-01-14 17:35:00,38.8,29.5,30.14,North,360,3.0,12.0,69,0.00,,,0.00,Wunderground v.1.15,2013-01-14 22:35:00,
2013-01-14 17:40:00,38.7,29.4,30.13,North,5,5.0,9.0,69,0.00,,,0.00,Wunderground v.1.15,2013-01-14 22:40:00,
2013-01-14 17:45:00,38.5,29.2,30.13,North,360,7.0,12.0,69,0.00,,,0.00,Wunderground v.1.15,2013-01-14 22:45:00,
2013-01-14 17:51:00,38.4,29.1,30.13,NNW,342,3.0,10.0,69,0.00,,,0.00,Wunderground v.1.15,2013-01-14 22:51:00,
2013-01-14 17:56:00,38.2,28.9,30.13,NE,38,4.0,13.0,69,0.00,,,0.00,Wunderground v.1.15,2013-01-14 22:56:00,
2013-01-14 18:01:00,38.0,28.7,30.13,NE,49,7.0,12.0,69,0.00,,,0.00,Wunderground v.1.15,2013-01-14 23:01:00,
2013-01-14 18:06:00,37.9,28.3,30.13,NNE,28,8.0,14.0,68,0.00,,,0.00,Wunderground v.1.15,2013-01-14 23:06:00,
2013-01-14 18:11:00,37.8,28.2,30.13,North,5,6.0,12.0,68,0.00,,,0.00,Wunderground v.1.15,2013-01-14 23:11:00,
2013-01-14 18:16:00,37.7,28.1,30.14,NW,321,4.0,16.0,68,0.00,,,0.00,Wunderground v.1.15,2013-01-14 23:16:00,
2013-01-14 18:21:00,37.5,28.2,30.14,North,5,10.0,11.0,69,0.00,,,0.00,Wunderground v.1.15,2013-01-14 23:21:00,
2013-01-14 18:26:00,37.5,28.2,30.14,NNE,29,9.0,13.0,69,0.00,,,0.00,Wunderground v.1.15,2013-01-14 23:26:00,
2013-01-14 18:31:00,37.4,28.2,30.15,NNW,330,6.0,11.0,69,0.00,,,0.00,Wunderground v.1.15,2013-01-14 23:31:00,
2013-01-14 18:36:00,37.2,28.0,30.16,NNW,348,5.0,12.0,69,0.00,,,0.00,Wunderground v.1.15,2013-01-14 23:36:00,
2013-01-14 18:41:00,37.1,27.9,30.17,NNE,12,2.0,9.0,69,0.00,,,0.00,Wunderground v.1.15,2013-01-14 23:41:00,
2013-01-14 18:46:00,37.0,27.8,30.16,NNE,19,13.0,20.0,69,0.00,,,0.00,Wunderground v.1.15,2013-01-14 23:46:00,
2013-01-14 18:51:00,36.9,27.7,30.17,NNW,341,6.0,11.0,69,0.00,,,0.00,Wunderground v.1.15,2013-01-14 23:51:00,
2013-01-14 18:57:00,36.8,27.6,30.17,North,5,9.0,15.0,69,0.00,,,0.00,Wunderground v.1.15,2013-01-14 23:57:00,
2013-01-14 19:02:00,36.6,27.4,30.17,NNW,339,4.0,8.0,69,0.00,,,0.00,Wunderground v.1.15,2013-01-15 00:02:00,
2013-01-14 19:07:00,36.4,27.2,30.18,North,355,5.0,15.0,69,0.00,,,0.00,Wunderground v.1.15,2013-01-15 00:07:00,
2013-01-14 19:11:00,36.3,27.4,30.18,NW,318,2.0,13.0,70,0.00,,,0.00,Wunderground v.1.15,2013-01-15 00:11:00,
2013-01-14 19:16:00,36.2,27.4,30.19,NW,315,10.0,13.0,70,0.00,,,0.00,Wunderground v.1.15,2013-01-15 00:16:00,
2013-01-14 19:21:00,36.2,27.4,30.19,NW,320,6.0,12.0,70,0.00,,,0.00,Wunderground v.1.15,2013-01-15 00:21:00,
2013-01-14 19:27:00,36.0,27.2,30.20,NNW,338,8.0,17.0,70,0.00,,,0.00,Wunderground v.1.15,2013-01-15 00:27:00,
2013-01-14 19:32:00,35.9,26.7,30.20,WNW,300,7.0,9.0,69,0.00,,,0.00,Wunderground v.1.15,2013-01-15 00:32:00,
2013-01-14 19:37:00,35.8,26.6,30.20,North,5,7.0,10.0,69,0.00,,,0.00,Wunderground v.1.15,2013-01-15 00:37:00,
2013-01-14 19:42:00,35.7,26.5,30.21,NNE,20,4.0,11.0,69,0.00,,,0.00,Wunderground v.1.15,2013-01-15 00:42:00,
2013-01-14 19:47:00,35.7,26.5,30.21,NW,314,5.0,12.0,69,0.00,,,0.00,Wunderground v.1.15,2013-01-15 00:47:00,
2013-01-14 19:52:00,35.6,26.4,30.21,NNW,343,3.0,15.0,69,0.00,,,0.00,Wunderground v.1.15,2013-01-15 00:52:00,
2013-01-14 19:57:00,35.6,26.4,30.20,NNW,348,6.0,15.0,69,0.00,,,0.00,Wunderground v.1.15,2013-01-15 00:57:00,
2013-01-14 20:02:00,35.5,26.3,30.21,NW,312,9.0,11.0,69,0.00,,,0.00,Wunderground v.1.15,2013-01-15 01:02:00,
2013-01-14 20:07:00,35.4,26.2,30.20,NNE,13,8.0,14.0,69,0.00,,,0.00,Wunderground v.1.15,2013-01-15 01:07:00,
2013-01-14 20:12:00,35.4,26.2,30.21,North,355,8.0,13.0,69,0.00,,,0.00,Wunderground v.1.15,2013-01-15 01:12:00,
2013-01-14 20:17:00,35.3,26.1,30.20,NW,319,8.0,13.0,69,0.00,,,0.00,Wunderground v.1.15,2013-01-15 01:17:00,
2013-01-14 20:22:00,35.3,25.8,30.21,NW,313,5.0,11.0,68,0.00,,,0.00,Wunderground v.1.15,2013-01-15 01:22:00,
2013-01-14 20:27:00,35.2,26.0,30.22,NNW,343,4.0,11.0,69,0.00,,,0.00,Wunderground v.1.15,2013-01-15 01:27:00,
2013-01-14 20:32:00,35.2,25.7,30.21,North,355,5.0,11.0,68,0.00,,,0.00,Wunderground v.1.15,2013-01-15 01:32:00,
2013-01-14 20:37:00,35.1,25.6,30.22,NNW,341,4.0,11.0,68,0.00,,,0.00,Wunderground v.1.15,2013-01-15 01:37:00,
2013-01-14 20:42:00,35.1,25.9,30.23,NNW,343,7.0,8.0,69,0.00,,,0.00,Wunderground v.1.15,2013-01-15 01:42:00,
2013-01-14 20:47:00,35.0,25.5,30.22,NNW,327,4.0,10.0,68,0.00,,,0.00,Wunderground v.1.15,2013-01-15 01:47:00,
2013-01-14 20:52:00,35.0,25.9,30.22,NNW,338,8.0,11.0,69,0.00,,,0.00,Wunderground v.1.15,2013-01-15 01:52:00,
2013-01-14 20:57:00,34.9,25.4,30.21,North,349,4.0,11.0,68,0.00,,,0.00,Wunderground v.1.15,2013-01-15 01:57:00,
2013-01-14 21:02:00,34.9,25.8,30.21,North,360,4.0,8.0,69,0.00,,,0.00,Wunderground v.1.15,2013-01-15 02:02:00,
2013-01-14 21:07:00,34.8,25.7,30.21,NNW,344,3.0,10.0,69,0.00,,,0.00,Wunderground v.1.15,2013-01-15 02:07:00,
2013-01-14 21:12:00,34.8,25.7,30.21,NNE,19,1.0,5.0,69,0.00,,,0.00,Wunderground v.1.15,2013-01-15 02:12:00,
2013-01-14 21:17:00,34.8,25.7,30.21,WNW,290,2.0,10.0,69,0.00,,,0.00,Wunderground v.1.15,2013-01-15 02:17:00,
2013-01-14 21:22:00,34.8,25.7,30.20,NNE,17,4.0,8.0,69,0.00,,,0.00,Wunderground v.1.15,2013-01-15 02:22:00,
2013-01-14 21:27:00,34.7,25.6,30.21,NE,43,3.0,8.0,69,0.00,,,0.00,Wunderground v.1.15,2013-01-15 02:27:00,
2013-01-14 21:32:00,34.7,25.6,30.22,North,355,0.0,7.0,69,0.00,,,0.00,Wunderground v.1.15,2013-01-15 02:32:00,
2013-01-14 21:37:00,34.7,25.9,30.21,NNE,19,4.0,8.0,70,0.00,,,0.00,Wunderground v.1.15,2013-01-15 02:37:00,
2013-01-14 21:42:00,34.7,25.6,30.23,North,355,0.0,4.0,69,0.00,,,0.00,Wunderground v.1.15,2013-01-15 02:42:00,
2013-01-14 21:47:00,34.7,25.6,30.22,NNE,14,4.0,8.0,69,0.00,,,0.00,Wunderground v.1.15,2013-01-15 02:47:00,
2013-01-14 21:52:00,34.6,25.8,30.22,NNE,16,0.0,5.0,70,0.00,,,0.00,Wunderground v.1.15,2013-01-15 02:52:00,
2013-01-14 21:57:00,34.6,25.8,30.24,NNE,15,0.0,6.0,70,0.00,,,0.00,Wunderground v.1.15,2013-01-15 02:57:00,
2013-01-14 22:02:00,34.6,25.8,30.25,NNE,15,4.0,4.0,70,0.00,,,0.00,Wunderground v.1.15,2013-01-15 03:02:00,
2013-01-14 22:07:00,34.6,25.8,30.26,North,5,4.0,5.0,70,0.00,,,0.00,Wunderground v.1.15,2013-01-15 03:07:00,
2013-01-14 22:12:00,34.7,25.6,30.24,NE,49,4.0,5.0,69,0.00,,,0.00,Wunderground v.1.15,2013-01-15 03:12:00,
2013-01-14 22:17:00,34.6,25.5,30.24,NE,40,4.0,8.0,69,0.00,,,0.00,Wunderground v.1.15,2013-01-15 03:17:00,
2013-01-14 22:22:00,34.6,25.5,30.24,NE,44,7.0,7.0,69,0.00,,,0.00,Wunderground v.1.15,2013-01-15 03:22:00,
2013-01-14 22:27:00,34.6,25.5,30.23,NNE,23,1.0,8.0,69,0.00,,,0.00,Wunderground v.1.15,2013-01-15 03:27:00,
2013-01-14 22:32:00,34.5,25.7,30.23,NNE,20,3.0,6.0,70,0.00,,,0.00,Wunderground v.1.15,2013-01-15 03:32:00,
2013-01-14 22:37:00,34.5,25.4,30.24,NE,37,2.0,9.0,69,0.00,,,0.00,Wunderground v.1.15,2013-01-15 03:37:00,
2013-01-14 22:42:00,34.4,25.3,30.24,WNW,301,4.0,6.0,69,0.00,,,0.00,Wunderground v.1.15,2013-01-15 03:42:00,
2013-01-14 22:47:00,34.4,25.6,30.24,NE,36,4.0,7.0,70,0.00,,,0.00,Wunderground v.1.15,2013-01-15 03:47:00,
2013-01-14 22:52:00,34.3,25.5,30.23,NNE,20,2.0,7.0,70,0.00,,,0.00,Wunderground v.1.15,2013-01-15 03:52:00,
2013-01-14 22:57:00,34.3,25.2,30.24,NE,37,2.0,8.0,69,0.00,,,0.00,Wunderground v.1.15,2013-01-15 03:57:00,
2013-01-14 23:02:00,34.3,25.5,30.24,NNE,29,2.0,6.0,70,0.00,,,0.00,Wunderground v.1.15,2013-01-15 04:02:00,
2013-01-14 23:07:00,34.3,25.2,30.24,North,355,0.0,6.0,69,0.00,,,0.00,Wunderground v.1.15,2013-01-15 04:07:00,
2013-01-14 23:12:00,34.3,25.2,30.24,NNW,333,2.0,7.0,69,0.00,,,0.00,Wunderground v.1.15,2013-01-15 04:12:00,
2013-01-14 23:17:00,34.2,25.1,30.23,North,11,5.0,9.0,69,0.00,,,0.00,Wunderground v.1.15,2013-01-15 04:17:00,
2013-01-14 23:22:00,34.2,25.4,30.24,North,355,0.0,6.0,70,0.00,,,0.00,Wunderground v.1.15,2013-01-15 04:22:00,
2013-01-14 23:27:00,34.2,25.1,30.23,ENE,70,1.0,7.0,69,0.00,,,0.00,Wunderground v.1.15,2013-01-15 04:27:00,
2013-01-14 23:32:00,34.1,25.3,30.23,NNE,30,3.0,7.0,70,0.00,,,0.00,Wunderground v.1.15,2013-01-15 04:32:00,
2013-01-14 23:37:00,34.1,25.3,30.24,NNW,342,0.0,7.0,70,0.00,,,0.00,Wunderground v.1.15,2013-01-15 04:37:00,
2013-01-14 23:42:00,34.1,25.3,30.24,NNW,343,0.0,2.0,70,0.00,,,0.00,Wunderground v.1.15,2013-01-15 04:42:00,
2013-01-14 23:47:00,34.0,25.2,30.24,NNE,30,6.0,6.0,70,0.00,,,0.00,Wunderground v.1.15,2013-01-15 04:47:00,
2013-01-14 23:52:00,34.1,25.3,30.23,NNE,26,4.0,6.0,70,0.00,,,0.00,Wunderground v.1.15,2013-01-15 04:52:00,
2013-01-14 23:57:00,34.0,25.2,30.23,NNE,25,3.0,6.0,70,0.00,,,0.00,Wunderground v.1.15,2013-01-15 04:57:00,